• In Czech Republic
  • List of Countries
  • For 7 days
  • Water Temperature
  • Satellite Maps
  • Weather Map
  • Weather Widgets
  • user-avatar
    Login

    Hourly Weather Alcala la Real

    Today, 24 May, Thursday

    Time Temperature Precipitation Wind Pressure Humidity
    00:00 +18°C° 0 mm 1 mps 683 mmHg 57%
    01:00 +18°C° 0 mm 1 mps 683 mmHg 58%
    02:00 +16°C° 0 mm 1 mps 683 mmHg 59%
    03:00 +16°C° 0 mm 1 mps 682 mmHg 60%
    04:00 +16°C° 0 mm 1 mps 682 mmHg 62%
    05:00 +15°C° 0 mm 1 mps 682 mmHg 63%
    06:00 +16°C° 0 mm 1 mps 682 mmHg 62%
    07:00 +18°C° 0 mm 1 mps 682 mmHg 57%
    08:00 +19°C° 0 mm 2 mps 682 mmHg 52%
    09:00 +20°C° 0 mm 2 mps 683 mmHg 47%
    10:00 +21°C° 0 mm 3 mps 683 mmHg 45%
    11:00 +22°C° 0 mm 3 mps 683 mmHg 43%
    12:00 +25°C° 0 mm 4 mps 683 mmHg 41%
    13:00 +25°C° 0 mm 4 mps 683 mmHg 41%
    14:00 +25°C° 0 mm 5 mps 683 mmHg 41%
    15:00 +25°C° 0 mm 5 mps 683 mmHg 42%
    16:00 +22°C° 0.1 mm 5 mps 682 mmHg 48%
    17:00 +20°C° 0.1 mm 5 mps 682 mmHg 55%
    18:00 +17°C° 0.1 mm 5 mps 682 mmHg 61%
    19:00 +17°C° 0.1 mm 4 mps 682 mmHg 68%
    20:00 +16°C° 0.1 mm 3 mps 682 mmHg 74%
    21:00 +14°C° 0.1 mm 2 mps 682 mmHg 80%
    22:00 +14°C° 0 mm 1 mps 682 mmHg 83%
    23:00 +13°C° 0 mm 1 mps 682 mmHg 86%

    Tomorrow, 25 May, Friday

    Time Temperature Precipitation Wind Pressure Humidity
    00:00 +13°C° 0 mm 1 mps 682 mmHg 89%
    01:00 +13°C° 0.1 mm 1 mps 682 mmHg 89%
    02:00 +12°C° 0.1 mm 1 mps 681 mmHg 89%
    03:00 +12°C° 0.1 mm 1 mps 681 mmHg 90%
    04:00 +12°C° 0 mm 1 mps 681 mmHg 89%
    05:00 +12°C° 0 mm 1 mps 681 mmHg 88%
    06:00 +12°C° 0 mm 1 mps 681 mmHg 87%
    07:00 +13°C° 0 mm 1 mps 681 mmHg 78%
    08:00 +15°C° 0 mm 2 mps 682 mmHg 69%
    09:00 +16°C° 0 mm 2 mps 682 mmHg 60%
    10:00 +17°C° 0 mm 2 mps 682 mmHg 54%
    11:00 +19°C° 0 mm 3 mps 682 mmHg 48%
    12:00 +20°C° 0 mm 3 mps 682 mmHg 42%
    13:00 +20°C° 0 mm 4 mps 682 mmHg 42%
    14:00 +20°C° 0 mm 4 mps 682 mmHg 41%
    15:00 +21°C° 0 mm 4 mps 682 mmHg 41%
    16:00 +20°C° 0 mm 4 mps 682 mmHg 45%
    17:00 +19°C° 0 mm 4 mps 682 mmHg 49%
    18:00 +19°C° 0 mm 3 mps 681 mmHg 52%
    19:00 +17°C° 0 mm 3 mps 682 mmHg 59%
    20:00 +16°C° 0 mm 2 mps 682 mmHg 65%
    21:00 +14°C° 0 mm 1 mps 682 mmHg 72%
    22:00 +14°C° 0 mm 1 mps 682 mmHg 75%
    23:00 +13°C° 0 mm 1 mps 682 mmHg 79%

    Day after tomorrow, 26 May, Saturday

    Time Temperature Precipitation Wind Pressure Humidity
    00:00 +13°C° 0 mm 1 mps 681 mmHg 82%
    01:00 +12°C° 0 mm 1 mps 681 mmHg 84%
    02:00 +12°C° 0 mm 1 mps 681 mmHg 86%
    03:00 +10°C° 0 mm 0 mps 681 mmHg 88%
    04:00 +12°C° 0 mm 1 mps 681 mmHg 86%
    05:00 +12°C° 0 mm 1 mps 681 mmHg 85%
    06:00 +12°C° 0 mm 1 mps 681 mmHg 83%
    07:00 +14°C° 0 mm 1 mps 681 mmHg 73%
    08:00 +16°C° 0 mm 1 mps 682 mmHg 63%
    09:00 +19°C° 0 mm 1 mps 682 mmHg 53%
    10:00 +21°C° 0 mm 1 mps 683 mmHg 47%
    11:00 +21°C° 0 mm 2 mps 683 mmHg 42%
    12:00 +22°C° 0 mm 3 mps 683 mmHg 36%
    13:00 +24°C° 0 mm 3 mps 683 mmHg 36%
    14:00 +24°C° 0 mm 3 mps 683 mmHg 35%
    15:00 +25°C° 0 mm 3 mps 683 mmHg 35%
    16:00 +24°C° 0 mm 3 mps 682 mmHg 38%
    17:00 +24°C° 0 mm 3 mps 682 mmHg 40%
    18:00 +22°C° 0 mm 3 mps 682 mmHg 43%
    19:00 +20°C° 0 mm 2 mps 682 mmHg 49%
    20:00 +19°C° 0 mm 2 mps 682 mmHg 55%
    21:00 +18°C° 0 mm 1 mps 682 mmHg 62%
    22:00 +16°C° 0 mm 1 mps 682 mmHg 65%
    23:00 +16°C° 0 mm 1 mps 682 mmHg 68%

    27 May, Sunday

    Time Temperature Precipitation Wind Pressure Humidity
    00:00 +15°C° 0 mm 1 mps 682 mmHg 71%
    01:00 +15°C° 0.1 mm 1 mps 682 mmHg 74%
    02:00 +14°C° 0.1 mm 1 mps 682 mmHg 76%
    03:00 +14°C° 0.1 mm 1 mps 682 mmHg 78%
    04:00 +14°C° 0.1 mm 1 mps 682 mmHg 79%
    05:00 +14°C° 0.1 mm 1 mps 682 mmHg 79%
    06:00 +14°C° 0.1 mm 1 mps 682 mmHg 80%
    07:00 +16°C° 0.2 mm 1 mps 682 mmHg 73%
    08:00 +18°C° 0.2 mm 1 mps 683 mmHg 67%
    09:00 +18°C° 0.2 mm 2 mps 683 mmHg 61%
    10:00 +19°C° 0 mm 2 mps 683 mmHg 57%
    11:00 +21°C° 0 mm 2 mps 684 mmHg 53%
    12:00 +22°C° 0 mm 3 mps 684 mmHg 49%
    13:00 +22°C° 0.9 mm 3 mps 683 mmHg 50%
    14:00 +21°C° 0.9 mm 3 mps 683 mmHg 51%
    15:00 +21°C° 0.9 mm 3 mps 683 mmHg 52%
    16:00 +21°C° 1.6 mm 3 mps 682 mmHg 55%
    17:00 +20°C° 1.6 mm 3 mps 682 mmHg 58%
    18:00 +19°C° 1.6 mm 3 mps 682 mmHg 60%
    19:00 +18°C° 0.5 mm 3 mps 682 mmHg 64%
    20:00 +17°C° 0.5 mm 2 mps 682 mmHg 69%
    21:00 +16°C° 0.5 mm 2 mps 683 mmHg 73%
    22:00 +15°C° 0.1 mm 2 mps 682 mmHg 76%
    23:00 +14°C° 0.1 mm 2 mps 682 mmHg 79%

    28 May, Monday

    Time Temperature Precipitation Wind Pressure Humidity
    00:00 +14°C° 0.1 mm 1 mps 682 mmHg 82%
    01:00 +13°C° 0 mm 1 mps 682 mmHg 84%
    02:00 +13°C° 0 mm 1 mps 682 mmHg 85%
    03:00 +12°C° 0 mm 1 mps 681 mmHg 87%
    04:00 +12°C° 0 mm 1 mps 682 mmHg 86%
    05:00 +12°C° 0 mm 1 mps 682 mmHg 84%
    06:00 +12°C° 0 mm 1 mps 682 mmHg 83%
    07:00 +14°C° 0 mm 1 mps 682 mmHg 78%
    08:00 +15°C° 0 mm 2 mps 683 mmHg 73%
    09:00 +17°C° 0 mm 2 mps 683 mmHg 68%
    10:00 +18°C° 0 mm 2 mps 683 mmHg 63%
    11:00 +19°C° 0 mm 2 mps 683 mmHg 58%
    12:00 +20°C° 0 mm 3 mps 683 mmHg 54%
    13:00 +20°C° 0.1 mm 3 mps 683 mmHg 52%
    14:00 +21°C° 0.1 mm 3 mps 683 mmHg 50%
    15:00 +21°C° 0.1 mm 4 mps 683 mmHg 48%
    16:00 +21°C° 0 mm 4 mps 683 mmHg 49%
    17:00 +20°C° 0 mm 4 mps 683 mmHg 51%
    18:00 +20°C° 0 mm 5 mps 683 mmHg 52%
    19:00 +18°C° 0 mm 4 mps 683 mmHg 57%
    20:00 +17°C° 0 mm 3 mps 683 mmHg 63%
    21:00 +15°C° 0 mm 2 mps 683 mmHg 68%
    22:00 +14°C° 0 mm 2 mps 683 mmHg 70%
    23:00 +14°C° 0 mm 2 mps 683 mmHg 73%

    29 May, Tuesday

    Time Temperature Precipitation Wind Pressure Humidity
    00:00 +13°C° 0 mm 1 mps 683 mmHg 76%
    01:00 +13°C° 0 mm 1 mps 682 mmHg 78%
    02:00 +12°C° 0 mm 1 mps 682 mmHg 80%
    03:00 +12°C° 0 mm 1 mps 682 mmHg 81%
    04:00 +12°C° 0 mm 1 mps 682 mmHg 82%
    05:00 +12°C° 0 mm 1 mps 682 mmHg 82%
    06:00 +12°C° 0 mm 1 mps 682 mmHg 82%
    07:00 +14°C° 0 mm 1 mps 683 mmHg 76%
    08:00 +15°C° 0 mm 1 mps 683 mmHg 69%
    09:00 +17°C° 0 mm 2 mps 683 mmHg 62%
    10:00 +18°C° 0 mm 2 mps 683 mmHg 57%
    11:00 +19°C° 0 mm 3 mps 684 mmHg 52%
    12:00 +20°C° 0 mm 3 mps 684 mmHg 47%
    13:00 +21°C° 0 mm 3 mps 683 mmHg 45%
    14:00 +21°C° 0 mm 4 mps 683 mmHg 43%
    15:00 +21°C° 0 mm 4 mps 683 mmHg 42%
    16:00 +21°C° 0 mm 4 mps 683 mmHg 44%
    17:00 +20°C° 0 mm 4 mps 683 mmHg 47%
    18:00 +19°C° 0 mm 4 mps 683 mmHg 49%
    19:00 +18°C° 0 mm 4 mps 683 mmHg 56%
    20:00 +16°C° 0 mm 3 mps 683 mmHg 62%
    21:00 +14°C° 0 mm 3 mps 683 mmHg 69%
    22:00 +14°C° 0 mm 2 mps 683 mmHg 74%
    23:00 +13°C° 0 mm 2 mps 683 mmHg 78%
    Show more